SCP
0 0 0 -0 -0 -0 0 0 0 0 0 0 0 0 -0 0 -0 -0 -0 -0 0 -0 -0 -0 -0 -0 -0 -0 -0 -0 -0 -0
0 0 0 0 0 0 0 0 0 -0 0 0 0 -0 -0 -1 -1 -1 -0 -0 -0 -0 -0 -0 -0 -0 -0 -0 -0 -0 -0 -0
0 0 0 0 0 0 0 0 0 0 0 0 0 -0 -0 -1 -1 -1 -0 0 -0 -0 -0 -0 -0 -0 -0 -0 -0 -0 -0 -0
0 0 0 -0 0 0 0 0 0 0 0 0 0 -0 -0 -0 -0 0 0 0 0 -1 -1 -0 -0 -0 -0 -0 -0 -0 -0 -0
0 0 -0 -0 -0 0 0 0 -0 0 0 0 0 0 -0 0 0 0 0 0 0 0 -0 -0 -0 -0 -0 -0 -0 -0 -0 -0
0 0 -0 0 -0 0 0 0 0 -0 0 0 0 0 0 0 0 1 1 1 0 0 0 0 0 -0 -0 -0 -0 -0 -0 -0
0 0 0 0 0 0 0 0 0 0 0 -0 0 0 0 1 0 1 1 0 0 0 0 0 0 0 -0 -0 -0 -0 -0 -0
0 0 0 0 0 0 0 0 0 0 0 0 1 0 0 0 0 0 0 0 0 -0 0 0 0 0 0 0 0 0 0 0
0 0 0 0 0 -0 -0 -0 0 0 0 1 2 1 1 0 0 0 0 0 0 0 0 0 0 0 0 0 0 0 0 0
0 0 0 0 -0 -0 -0 -0 0 0 0 1 2 1 1 0 0 0 0 1 0 0 0 0 0 0 0 0 0 0 0 0
0 0 0 0 0 0 0 -0 0 0 0 1 0 1 1 1 1 1 1 0 1 0 0 0 0 0 0 0 0 0 0 0
0 0 0 0 0 0 0 -0 -0 0 0 0 1 0 2 2 1 1 1 0 0 0 1 1 1 0 0 0 0 0 0 0
0 0 0 0 0 0 0 0 0 0 0 0 1 1 1 1 1 1 0 0 0 1 1 1 1 1 1 0 0 0 0 0
0 0 0 0 -0 -0 -0 -0 0 0 0 0 0 0 1 2 2 1 1 0 0 1 0 1 1 1 1 1 0 0 0 0
0 0 0 0 -0 -0 0 0 0 0 0 0 0 0 0 1 2 2 1 0 0 0 0 1 0 0 0 0 0 0 0 0
0 0 0 0 0 0 0 0 0 0 0 0 0 0 0 0 1 1 0 0 0 0 0 0 0 0 0 0 0 0 0 0
0 0 0 0 0 0 -0 0 0 0 0 0 0 0 0 0 0 1 0 1 0 0 0 0 0 0 0 0 0 0 0 0
0 0 0 0 0 0 0 0 0 0 0 0 0 0 0 0 0 1 0 1 1 1 0 1 1 0 0 0 0 0 0 0
0 0 0 0 0 0 0 0 0 0 0 0 0 0 0 0 0 1 1 1 1 1 1 1 2 2 2 2 2 1 1 1
0 0 0 0 0 0 0 0 0 0 0 0 0 0 0 0 0 1 1 1 1 1 1 1 3 4 3 2 2 2 1 1
Wind_Speed_500mb
8 8 16 13 10 14 7 24 38 8 12 8 7 24 16 34 61 71 78 78 73 66 58 52 48 45 46 46 48 49 51 50
7 20 17 26 13 5 7 27 17 10 7 19 19 16 27 57 65 74 81 78 75 69 62 55 50 45 43 45 48 50 51 51
7 17 14 9 23 24 10 3 22 41 15 14 18 22 32 72 68 83 83 81 78 72 65 59 53 47 44 44 48 49 50 49
16 16 23 8 28 22 11 13 31 18 18 39 30 24 40 68 71 79 78 83 79 73 67 62 56 51 47 44 46 49 49 47
10 12 28 8 19 13 11 21 14 29 14 18 32 32 49 71 74 81 81 82 80 74 68 63 58 53 48 45 44 47 48 45
13 16 22 5 14 18 13 15 14 12 10 15 53 52 61 72 83 86 83 81 81 77 72 67 63 56 51 48 45 44 46 46
16 21 10 8 3 6 17 22 37 34 40 44 32 65 79 84 90 90 85 84 83 80 75 70 66 61 54 50 46 42 43 45
17 33 14 8 1 18 16 30 27 29 28 31 43 71 92 94 98 96 94 91 86 83 78 73 70 67 63 57 54 50 47 49
5 31 25 25 24 15 9 13 8 26 30 38 69 81 87 91 96 105 101 95 91 85 81 79 76 73 70 66 61 56 50 46
5 32 18 8 13 16 27 51 45 44 40 48 78 93 92 89 94 98 101 98 92 87 83 80 78 78 76 73 67 63 55 47
47 55 57 55 38 23 64 85 55 59 56 51 63 87 92 83 85 95 96 93 90 86 81 78 76 77 75 74 70 61 55 50
46 40 31 25 16 22 83 63 44 47 50 40 78 79 87 80 81 85 90 89 90 85 81 75 74 72 73 71 62 60 57 52
14 13 15 26 24 50 70 54 40 34 43 32 77 82 87 90 87 82 81 84 88 86 82 77 74 70 68 63 63 60 56 51
10 15 17 17 51 52 30 36 39 42 51 50 39 77 84 92 87 88 86 82 80 85 82 80 75 72 67 63 60 57 53 49
14 1 6 27 49 11 36 36 39 40 47 51 47 49 86 84 90 88 90 82 81 84 83 82 77 69 64 62 61 56 50 48
13 9 16 32 50 16 14 25 38 49 58 51 51 45 76 93 91 88 90 88 82 84 77 77 73 70 66 63 60 58 54 47
22 13 14 30 42 23 14 30 27 48 56 56 54 53 61 76 88 94 88 85 87 87 81 78 79 76 74 70 64 58 57 45
30 30 27 41 55 32 24 28 32 42 55 65 67 58 52 75 76 88 92 92 97 93 88 82 78 73 73 70 65 56 50 50
21 23 24 33 49 29 18 28 47 54 46 58 74 75 65 60 79 88 88 88 90 97 95 89 80 76 74 68 65 61 58 56
23 7 10 9 28 20 11 25 21 40 53 58 64 76 82 77 71 85 82 76 81 88 98 97 89 83 82 78 74 73 67 62
Wind_Direction_500mb
145 166 211 233 206 224 236 309 305 305 229 243 224 219 176 172 160 172 172 173 171 171 170 167 164 162 160 161 160 159 157 156
135 219 242 225 224 276 341 319 334 257 236 268 252 228 194 170 166 174 175 174 174 173 173 171 167 165 160 159 161 159 158 158
227 249 256 225 238 266 284 67 275 315 282 264 259 219 190 174 173 177 175 175 176 176 176 175 172 168 164 160 161 160 161 162
223 244 250 278 236 258 240 208 273 285 271 275 252 233 189 177 176 179 177 176 178 177 179 179 177 173 169 163 162 165 165 165
219 247 260 252 223 229 264 263 195 277 244 252 239 199 185 181 179 180 180 178 180 179 181 182 181 179 175 169 166 170 171 169
223 216 259 194 197 264 226 287 358 324 234 227 215 189 185 182 182 181 180 181 182 182 182 184 184 184 182 177 173 174 176 176
214 197 226 160 133 264 300 276 329 306 299 264 222 185 180 179 181 182 182 185 185 184 185 186 186 186 187 185 181 180 181 183
201 218 205 194 168 335 316 309 314 332 321 228 200 187 183 181 182 184 185 186 188 188 187 188 188 190 190 191 190 189 189 189
236 243 243 264 277 271 292 294 186 331 325 205 194 189 189 188 187 187 186 187 190 191 190 191 191 192 193 195 196 197 196 196
272 233 244 253 272 272 256 255 270 287 312 192 188 189 192 194 191 191 189 190 189 193 194 194 195 197 198 198 199 201 201 201
246 247 257 267 265 277 273 262 260 266 282 218 201 197 196 199 193 193 191 194 194 194 197 198 199 202 203 204 204 204 206 206
264 259 255 254 267 248 259 268 258 261 261 251 212 209 199 199 200 197 196 198 197 197 199 200 203 207 209 210 209 209 211 213
236 218 234 232 252 236 252 275 281 256 257 250 215 217 214 209 207 201 200 199 199 200 202 202 205 207 210 212 212 214 215 216
297 192 209 172 258 247 241 252 260 252 256 247 225 217 223 221 214 204 203 199 200 203 205 206 207 206 208 209 213 216 219 219
315 359 308 198 258 260 245 245 250 258 255 255 234 227 219 222 220 211 209 205 203 203 206 208 208 209 209 210 212 213 216 220
247 284 235 252 260 291 311 263 253 248 252 252 243 220 214 217 226 220 216 212 209 205 206 208 209 209 209 209 212 213 215 217
262 286 323 276 282 289 272 253 252 248 253 254 254 240 203 205 213 222 228 223 214 208 207 205 204 207 209 209 208 213 210 205
272 264 258 272 277 276 261 259 248 243 248 246 249 245 206 194 196 207 210 216 219 214 207 206 206 208 212 212 215 218 212 206
253 265 257 273 277 269 253 258 250 251 250 253 247 245 218 197 203 209 208 210 215 216 214 210 210 212 211 213 218 217 216 214
292 240 247 154 277 262 242 242 230 242 244 244 245 247 241 230 214 206 205 206 208 213 216 215 216 218 214 215 216 219 217 214
Wind_Speed_850mb
8 8 16 13 10 14 7 24 38 8 12 8 7 24 16 34 61 71 78 78 73 66 58 52 48 45 46 46 48 49 51 50
7 20 17 26 13 5 7 27 17 10 7 19 19 16 27 57 65 74 81 78 75 69 62 55 50 45 43 45 48 50 51 51
7 17 14 9 23 24 10 3 22 41 15 14 18 22 32 72 68 83 83 81 78 72 65 59 53 47 44 44 48 49 50 49
16 16 23 8 28 22 11 13 31 18 18 39 30 24 40 68 71 79 78 83 79 73 67 62 56 51 47 44 46 49 49 47
10 12 28 8 19 13 11 21 14 29 14 18 32 32 49 71 74 81 81 82 80 74 68 63 58 53 48 45 44 47 48 45
13 16 22 5 14 18 13 15 14 12 10 15 53 52 61 72 83 86 83 81 81 77 72 67 63 56 51 48 45 44 46 46
16 21 10 8 3 6 17 22 37 34 40 44 32 65 79 84 90 90 85 84 83 80 75 70 66 61 54 50 46 42 43 45
17 33 14 8 1 18 16 30 27 29 28 31 43 71 92 94 98 96 94 91 86 83 78 73 70 67 63 57 54 50 47 49
5 31 25 25 24 15 9 13 8 26 30 38 69 81 87 91 96 105 101 95 91 85 81 79 76 73 70 66 61 56 50 46
5 32 18 8 13 16 27 51 45 44 40 48 78 93 92 89 94 98 101 98 92 87 83 80 78 78 76 73 67 63 55 47
47 55 57 55 38 23 64 85 55 59 56 51 63 87 92 83 85 95 96 93 90 86 81 78 76 77 75 74 70 61 55 50
46 40 31 25 16 22 83 63 44 47 50 40 78 79 87 80 81 85 90 89 90 85 81 75 74 72 73 71 62 60 57 52
14 13 15 26 24 50 70 54 40 34 43 32 77 82 87 90 87 82 81 84 88 86 82 77 74 70 68 63 63 60 56 51
10 15 17 17 51 52 30 36 39 42 51 50 39 77 84 92 87 88 86 82 80 85 82 80 75 72 67 63 60 57 53 49
14 1 6 27 49 11 36 36 39 40 47 51 47 49 86 84 90 88 90 82 81 84 83 82 77 69 64 62 61 56 50 48
13 9 16 32 50 16 14 25 38 49 58 51 51 45 76 93 91 88 90 88 82 84 77 77 73 70 66 63 60 58 54 47
22 13 14 30 42 23 14 30 27 48 56 56 54 53 61 76 88 94 88 85 87 87 81 78 79 76 74 70 64 58 57 45
30 30 27 41 55 32 24 28 32 42 55 65 67 58 52 75 76 88 92 92 97 93 88 82 78 73 73 70 65 56 50 50
21 23 24 33 49 29 18 28 47 54 46 58 74 75 65 60 79 88 88 88 90 97 95 89 80 76 74 68 65 61 58 56
23 7 10 9 28 20 11 25 21 40 53 58 64 76 82 77 71 85 82 76 81 88 98 97 89 83 82 78 74 73 67 62
Wind_Direction_850mb
145 166 211 233 206 224 236 309 305 305 229 243 224 219 176 172 160 172 172 173 171 171 170 167 164 162 160 161 160 159 157 156
135 219 242 225 224 276 341 319 334 257 236 268 252 228 194 170 166 174 175 174 174 173 173 171 167 165 160 159 161 159 158 158
227 249 256 225 238 266 284 67 275 315 282 264 259 219 190 174 173 177 175 175 176 176 176 175 172 168 164 160 161 160 161 162
223 244 250 278 236 258 240 208 273 285 271 275 252 233 189 177 176 179 177 176 178 177 179 179 177 173 169 163 162 165 165 165
219 247 260 252 223 229 264 263 195 277 244 252 239 199 185 181 179 180 180 178 180 179 181 182 181 179 175 169 166 170 171 169
223 216 259 194 197 264 226 287 358 324 234 227 215 189 185 182 182 181 180 181 182 182 182 184 184 184 182 177 173 174 176 176
214 197 226 160 133 264 300 276 329 306 299 264 222 185 180 179 181 182 182 185 185 184 185 186 186 186 187 185 181 180 181 183
201 218 205 194 168 335 316 309 314 332 321 228 200 187 183 181 182 184 185 186 188 188 187 188 188 190 190 191 190 189 189 189
236 243 243 264 277 271 292 294 186 331 325 205 194 189 189 188 187 187 186 187 190 191 190 191 191 192 193 195 196 197 196 196
272 233 244 253 272 272 256 255 270 287 312 192 188 189 192 194 191 191 189 190 189 193 194 194 195 197 198 198 199 201 201 201
246 247 257 267 265 277 273 262 260 266 282 218 201 197 196 199 193 193 191 194 194 194 197 198 199 202 203 204 204 204 206 206
264 259 255 254 267 248 259 268 258 261 261 251 212 209 199 199 200 197 196 198 197 197 199 200 203 207 209 210 209 209 211 213
236 218 234 232 252 236 252 275 281 256 257 250 215 217 214 209 207 201 200 199 199 200 202 202 205 207 210 212 212 214 215 216
297 192 209 172 258 247 241 252 260 252 256 247 225 217 223 221 214 204 203 199 200 203 205 206 207 206 208 209 213 216 219 219
315 359 308 198 258 260 245 245 250 258 255 255 234 227 219 222 220 211 209 205 203 203 206 208 208 209 209 210 212 213 216 220
247 284 235 252 260 291 311 263 253 248 252 252 243 220 214 217 226 220 216 212 209 205 206 208 209 209 209 209 212 213 215 217
262 286 323 276 282 289 272 253 252 248 253 254 254 240 203 205 213 222 228 223 214 208 207 205 204 207 209 209 208 213 210 205
272 264 258 272 277 276 261 259 248 243 248 246 249 245 206 194 196 207 210 216 219 214 207 206 206 208 212 212 215 218 212 206
253 265 257 273 277 269 253 258 250 251 250 253 247 245 218 197 203 209 208 210 215 216 214 210 210 212 211 213 218 217 216 214
292 240 247 154 277 262 242 242 230 242 244 244 245 247 241 230 214 206 205 206 208 213 216 215 216 218 214 215 216 219 217 214